Orbital Elements at Epoch 2459200.5 (2020-Dec-17.0) TDB
Reference: JPL 42 (heliocentric ecliptic J2000)
Element | Value | Uncertainty (1-sigma) | Units |
e | .06621809251579165 | 3.4689e-08 | |
a | 2.432754892795606 | 8.6821e-09 | au |
q | 2.271662504236222 | 8.3111e-08 | au |
i | 5.344265877423034 | 4.4692e-06 | deg |
node | 327.2121258244619 | 3.3178e-05 | deg |
peri | 314.7840125400764 | 4.6044e-05 | deg |
M | 179.7905735227341 | 3.2522e-05 | deg |
tp | 2458508.333819104783 (2019-Jan-24.83381910) | 0.00012487 | TDB |
period | 1385.944881536128 3.79 | 7.4193e-06 2.031e-08 | d yr |
n | .2597505895046778 | 1.3905e-09 | deg/d |
Q | 2.593847281354991 | 9.257e-09 | au |
|
| | Orbit Determination Parameters
Additional Information
|